{"data":{"norad_id":63046,"epoch":"2026-05-25T01:30:14.332032Z","epoch_age_seconds":69797,"freshness":"FRESH","line1":"1 63046U 25034T   26145.06266588  .00018635  00000+0  63950-3 0  9990","line2":"2 63046  53.1594 263.1068 0001131  83.2751 276.8379 15.30210961 70788","mean_motion":15.30210961,"eccentricity":0.0001131,"inclination_deg":53.1594,"raan_deg":263.1068,"arg_perigee_deg":83.2751,"mean_anomaly_deg":276.8379,"bstar":0.0006395,"rev_number":7078,"period_min":94.104671623771,"perigee_km":474.40723162683,"apogee_km":475.957452462,"semimajor_km":6853.3193420444,"source":"CELESTRAK","updated_at":"2026-05-25T13:38:19.869464Z"}}